User: anonymous   Login
Location: Newark
(46.3833°N, 12.2833°E)
Time: 20:27:46
(UTC+00:00)
Language:

QB50P2 - Orbit

View from above orbital plane
View from above orbital plane
View from above satellite
View from above satellite

Ground track
Ground track

The orbit data is extracted from the following two-line orbital elements,

1 40032U 14033Y   19293.72805485  .00000277  00000-0  35833-4 0  9995
2 40032  97.8957 211.1452 0012263  14.5465 345.6102 14.88533049289691
Epoch (UTC): 20 October 2019 17:28:23
Eccentricity: 0.0012263
inclination: 97.8957°
perigee height: 594 km
apogee height: 611 km
right ascension of ascending node: 211.1452°
argument of perigee: 14.5465°
revolutions per day: 14.88533049
mean anomaly at epoch: 345.6102°
orbit number at epoch: 28969

The dashed part of the orbit path shows where the satellite is in the earth's shadow,  

DLR